Current Version              Previous Version:    01  02  03  04  05  06  07  08  09  10  11  12  13  14  15  16  17  18  19  20  21  22  23  24  25  26  27  28  29  30  
   31  32  33  34  35  36  37  38  39  40  41  42  43  44  45  46  47  48  49  50  51  52  53  54  55  56  57  58  59  60  

[Printable]
152
ASUS44 KLUB 292301
RWRTX
WEST TEXAS WEATHER ROUNDUP
NATIONAL WEATHER SERVICE LUBBOCK TX
600 PM CDT TUE JUL 29 2014

NOTE: "FAIR" INDICATES FEW OR NO CLOUDS BELOW 12,000 FEET WITH NO
SIGNIFICANT WEATHER AND/OR OBSTRUCTIONS TO VISIBILITY.

TXZ004-006>008-010-012-014-016-OKZ002-300000-
TEXAS PANHANDLE/OKLAHOMA PANHANDLE

CITY           SKY/WX    TMP DP  RH WIND       PRES   REMARKS
AMARILLO       CLOUDY    76  61  59 S12       30.15F
BORGER         CLOUDY    81  62  52 S12       30.12F
CANADIAN       PTSUNNY   76  65  67 SE9       30.11F
DALHART        MOSUNNY   81  61  50 S16       30.13F
DUMAS          PTSUNNY   77  63  61 S12G17    30.14S
GUYMON         PTSUNNY   80  64  58 S14       30.08F
HEREFORD       PTSUNNY   80  65  60 SE13G18   30.16F
PAMPA          CLOUDY    74  62  66 SE17      30.14F
PERRYTON       PTSUNNY   75  66  73 SE16G22   30.12F
$$

TXZ026-029-035-045-048-300000-
SOUTHERN PANHANDLE/SOUTH PLAINS/ROLLING PLAINS

CITY           SKY/WX    TMP DP  RH WIND       PRES   REMARKS
CHILDRESS      CLOUDY    79  63  57 SE14G22   30.11F
SEMINOLE       PTSUNNY   88  59  37 NE8       30.10F
LUBBOCK        CLOUDY    79  65  62 E9        30.13F
PLAINVIEW      PTSUNNY   78  63  60 SE7       30.13F
SNYDER         CLOUDY    73  66  80 E9        30.10F
$$

TXZ052-054-060>062-072-078-127-140-154-169-300000-
PERMIAN BASIN/CONCHO VALLEY/BIG COUNTRY/EDWARDS PLATEAU

CITY           SKY/WX    TMP DP  RH WIND       PRES   REMARKS
ABILENE        CLOUDY    86  66  51 E10       30.07S
BIG SPRING     PTSUNNY   92  62  37 NE20G25   30.07F
BRADY          PTSUNNY   90  68  48 E18       30.06R
BROWNWOOD      MOSUNNY   90  66  45 E17G23    30.07S
JUNCTION       MOSUNNY   98  56  24 SE12G17   30.02F HX  96
MIDLAND        MOSUNNY   95  52  23 S8        30.03F
ODESSA         MOSUNNY   95  49  20 S14       30.05F
SAN ANGELO     MOSUNNY   99  56  23 E8G17     30.01F HX  97
SONORA         SUNNY     95  54  24 S12       30.07F
SWEETWATER     CLOUDY    74  67  78 NE8       30.13F
WINK           PTSUNNY   97  48  18 E7        30.00F
$$

TXZ055-058-074-075-080-082-300000-
FAR WEST/SOUTHWEST MOUNTAINS/TRANS PECOS

CITY           SKY/WX    TMP DP  RH WIND       PRES   REMARKS
ALPINE         MOSUNNY   92  46  20 SE7       30.19F
DRYDEN           N/A    102  54  20 SE15G23   30.00F HX 100
EL PASO        PTSUNNY   87  59  38 CALM      30.09F
FORT STOCKTON  SUNNY     96  50  20 SE14G22   30.04F
GUADALUPE PASS MOSUNNY   83  57  41 E9G22     30.24F
MARFA          MOSUNNY   90  46  22 E9        30.20F
PRESIDIO       FAIR      98  50  19 N3        29.99F HX  95
$$

TXZ014-016-019-021>030-083-300000
TEXAS TECH WEST TEXAS MESONET/TEXAS PANHANDLE/NORTHERN SOUTH PLAINS

CITY           SKY/WX    TMP DP  RH WIND       PRES   REMARKS
ABERNATHY 5ENE   N/A     78  62  58 E6        30.15F
AMARILLO 9NNE    N/A     77  63  61 S10       30.13F
AMARILLO 7SSE    N/A     75  62  62 SE8       30.16F
AMHERST 1NE      N/A     74  65  74 SE7       30.17S
BOOTLEG 11WNW    N/A     79  62  55 SW14      30.19F
CANADIAN 6E      N/A     75  63  65 SE14      30.11F
CAPROCK CYN SP   N/A     82  62  50 CALM      30.12F
CHILDRESS 2NNE   N/A     78  65  63 E14       30.10F
CLARENDON 2WSW   N/A     78  62  58 E15       30.13F
DIMMITT 2NE      N/A     73  64  72 SE10      30.17F
FLOYDADA 2NNE    N/A     80  59  47 E5        30.14F
FRIONA 2NE       N/A     78  62  57 S14       30.18S
GOODLETT 3W      N/A     80  63  57 E12       30.09F
HART 3N          N/A     74  64  71 SE3       30.16F
HEREFORD 2NW     N/A     77  62  58 S9        30.16F
MCLEAN 1E        N/A     73  62  66 SE13      30.14F
MEMPHIS 1NE      N/A     79  63  57 E10       30.11F
MULESHOE 2SSW    N/A     79  61  54 SE8       30.17F
OLTON 6S         N/A     76  63  62 SE8       30.16S
PALO DURO SP     N/A     75  61  61 S8        30.16F
PAMPA 2E         N/A     74  64  70 SE15      30.14F
PLAINVIEW 1S     N/A     78  63  61 SE9       30.14F
SILVERTON 7ESE   N/A     79  62  54 E3        30.15F
TULIA 2ENE       N/A     78  61  55 SE10      30.15F
TURKEY 2WSW      N/A     83  63  50 SE5       30.10F
UMBARGER 3NNE    N/A     76  63  62 S10       30.17F
$$

TXZ033>036-039>041-045>048-300000
TEXAS TECH WEST TEXAS MESONET/SOUTH PLAINS

CITY           SKY/WX    TMP DP  RH WIND       PRES   REMARKS
AIKEN 3WSW       N/A     78  64  62 E6        30.16F
ANTON 6SSW       N/A     75  66  75 E6        30.15S
BROWNFIELD 2S    N/A     83  61  47 E8        30.12F
DENVR CTY 7WNW   N/A     85  58  39 E12       30.12F
GAIL 2ESE        N/A     86  63  46 E12       30.06F
LAMESA 2SE       N/A     91  59  33 NE10      30.08F
LEVELLAND 4S     N/A     76  65  70 E6        30.15S
LUBBOCK 3WNW     N/A     78  63  58 NE8       30.13F
MORTON 1ENE      N/A     76  67  74 E6        30.17R
ODONNELL 1N      N/A     87  58  37 E10       30.09F
PLAINS 3N        N/A     79  66  65 E8        30.14F
RALLS 1SE        N/A     82  62  50 E7        30.14F
REESE CENTER     N/A     77  64  64 E8        30.13F
SEAGRAVES 1SW    N/A     86  60  41 E8        30.11F
SEMINOLE 2NNE    N/A     87  59  38 NE9       30.09F
SLATON 2NE       N/A     82  60  47 NE8       30.12F
SNYDER 3E      LGT RAIN  69  67  92 NE8       30.10F
SUNDOWN 8SW      N/A     79  65  63 E6        30.15S
TAHOKA 3NNE      N/A     86  61  42 E9        30.10F
WOLFFORTH 6SSW   N/A     79  64  60 NE10      30.13F
$$

TXZ031-032-036>038-042>044-300000-
TEXAS TECH WEST TEXAS MESONET/ROLLING PLAINS

CITY           SKY/WX    TMP DP  RH WIND       PRES   REMARKS
ASPERMONT 3NE    N/A     90  63  41 E13G22    30.07R
FLUVANNA 3WNW    N/A     84  63  48 E12       30.08F
GRAHAM 5SSW      N/A     88  58  36 NE9       30.08F
GUTHRIE 10WSW    N/A     90  60  36 E8        30.08S
HASKELL 1NW      N/A     88  57  35 SE10      30.07F
JAYTON 1SSE      N/A     89  59  36 E13       30.07S
KNOX CITY 3NW    N/A     91  54  28 E16       30.07S
LK A HENRY 1NW   N/A     84  63  48 SE13      30.08R
NORTHFIELD 1S    N/A     84  61  45 E14       30.09F
ODELL 4ENE       N/A     79  64  59 E12       30.11F
PADUCAH 10SW     N/A     85  60  42 E16       30.09F
POST 1NE         N/A     89  58  35 NE9       30.08F
RRING SPRGS 3N   N/A     83  63  49 E7        30.12F
SEYMOUR 3NW      N/A     86  59  39 E10       30.09S
SPUR 1W          N/A     87  58  36 NE8       30.08F
WEINERT 2NNE     N/A     89  58  35 E15       30.08S
WHITE RVR 6NE    N/A     86  62  44 NE10      30.10F
$$

TXZ052-054-060>062-072-078-127-140-154-169-300000-
TEXAS TECH WEST TEXAS MESONET/PERMIAN BASIN/
CONCHO VALLEY/BIG COUNTRY/EDWARDS PLATEAU

CITY           SKY/WX    TMP DP  RH WIND       PRES   REMARKS
COYANOSA 2N      N/A    101  50  17 E16       30.00F HX  97
JUNCTION 1SSW    N/A     98  58  26 E10       30.03F HX  97
MERTZON 3NNE     N/A     98  55  23 S5        30.03F HX  96
SAN ANGELO 7NW   N/A     96  56  26 E8        30.02S
STRLNG CT 4WSW   N/A     88  63  42 NW2       30.05S
ST LAWRNCE 5SW   N/A     94  52  23 SE13G23   30.04F
SWEETWATR 11SW   N/A     77  64  65 NE17      30.10F
WALL 1E          N/A     96  58  27 E9        30.02F HX  95
$$

TXZ055-058-074-075-080-082-300000-
TEXAS TECH WEST TEXAS MESONET/FAR WEST/SOUTHWEST MOUNTAINS/TRANS PECOS

CITY           SKY/WX    TMP DP  RH WIND       PRES   REMARKS
PRSMN GAP BBNP   N/A     99  46  16 E3        30.01F HX  95
GUADLPE MTN NP   N/A     80  57  44 N5        30.26F
$$